User: anonymous   Login
Location: Cimarron National Grasslands
(37.1250°N, 101.7500°W)
Time: 05:34:33
(UTC-05:00)
Language:

Ariane Rocket - Orbit

View from above orbital plane
View from above orbital plane
View from above satellite
View from above satellite

Ground track
Ground track

The orbit data is extracted from the following two-line orbital elements,

1 23561U 95021B   15243.98068675  .00000112  00000-0  52542-4 0  9994
2 23561  98.7375 220.8492 0007919  44.9508  22.8560 14.37630805 67105
Epoch (UTC): 31 August 2015 23:32:11
Eccentricity: 0.0007919
inclination: 98.7375°
perigee height: 760 km
apogee height: 772 km
right ascension of ascending node: 220.8492°
argument of perigee: 44.9508°
revolutions per day: 14.37630805
mean anomaly at epoch: 22.8560°
orbit number at epoch: 6710

The dashed part of the orbit path shows where the satellite is in the earth's shadow,  

DLR